Location: ?????????
(48.3736°N, 37.9072°E)
Time: 20:09:57
(UTC+00:00)

Daily predictions for brighter satellites

Satellite Brightness Start Highest point End
(mag) Time Altitude Azimuth Time Altitude Azimuth Time Altitude Azimuth
Landsat 5 3.8 14:10:54 10° NNE 14:15:08 51° E 14:19:28 10° S
Cosmos 1862 3.8 14:14:55 10° N 14:18:44 38° ENE 14:22:30 10° SE
Cosmos 2360 Rocket 3.1 14:17:20 10° SW 14:22:45 47° NW 14:28:12 10° NNE
CZ-4 R/B 3.2 14:26:44 10° ENE 14:27:56 11° ENE 14:29:08 10° NE
Cosmos 1125 Rocket 3.8 14:23:07 10° NNW 14:28:06 42° ENE 14:33:01 10° SE
Cosmos 2208 Rocket 4.1 14:23:05 10° S 14:28:18 68° ESE 14:33:38 10° NNE
Cosmos 2219 Rocket 2.2 14:25:57 10° SSW 14:31:37 88° ESE 14:37:18 10° NNE
CZ-4B R/B 3.1 14:29:08 10° SSE 14:34:27 70° ENE 14:39:44 10° N
SL-16 R/B 4.1 14:32:51 10° W 14:37:12 22° NW 14:41:36 10° N
FengYun 1-2 T 4.4 14:31:56 10° SE 14:37:16 51° ENE 14:42:36 10° N
Cosmos 2221 2.5 14:34:31 10° S 14:38:52 82° E 14:43:13 10° N
Cosmos 1500 Rocket 3.5 14:34:44 10° N 14:39:08 75° E 14:43:32 10° SSE
NOAA 12 4.1 14:33:55 10° SSE 14:39:13 71° ENE 14:44:32 10° N
USA 267 3.4 14:32:56 10° E 14:39:18 61° NNE 14:45:43 10° NW
SL-24 R/B - RUBIN 2 4.4 14:33:06 10° NW 14:39:32 67° NE 14:45:15 10° SE
Cosmos 2237 Rocket 2.8 14:34:26 10° S 14:39:32 37° ESE 14:44:40 10° NE
Cosmos 1939 Rocket 3.7 14:39:03 10° ESE 14:42:17 26° ENE 14:45:33 10° N
NOAA 11 4.3 14:37:20 10° SE 14:42:34 52° ENE 14:47:50 10° N
ERS-2 3.2 14:41:43 10° NE 14:44:50 26° E 14:47:56 10° SSE
Abrixas rocket 2.8 14:43:59 10° W 14:46:39 44° SSW 14:49:19 10° SE
NOSS 2-1 (E) 4.4 14:42:03 10° NW 14:47:09 86° SW 14:54:25 10° SE
Cosmos 2322 4.3 14:41:58 10° SW 14:47:32 56° WNW 14:53:09 10° NNE
Cosmos 1869 4.3 14:45:11 10° SSW 14:49:07 50° WNW 14:53:07 10° N
Cosmos 540 Rocket 4.0 14:45:01 10° SW 14:50:04 60° WNW 14:55:10 10° NNE
Cosmos 2369 Rocket 3.7 14:47:41 10° N 14:51:13 16° NE 14:53:01 15° ENE
ISS -2.6 14:48:16 10° SSW 14:51:16 30° SE 14:53:08 18° E
YAOGAN 1 3.9 14:49:31 13° E 14:51:42 18° ENE 14:54:40 10° NNE
Meteor 2-2 Rocket 4.4 14:47:03 10° S 14:53:02 89° W 14:58:58 10° NNE
GENESIS II 4.3 14:49:37 10° NNW 14:53:33 54° NE 14:57:23 10° SE
CZ-4B R/B 1.8 14:53:47 16° NE 14:55:49 34° E 14:58:39 10° SSE
Okean-O 3.7 14:52:56 10° ESE 14:56:28 24° ENE 15:00:00 10° N
AQUARIUS 4.2 14:52:13 10° SSE 14:56:44 89° W 15:01:15 10° NNW
CRYOSAT 2 4.3 14:52:15 10° N 14:57:09 70° E 15:02:01 10° S
Cosmos 1980 3.9 14:51:49 10° S 14:57:20 54° ESE 15:02:42 11° NE
CORIOLIS 4.2 14:51:58 10° SSE 14:57:22 88° ENE 15:02:50 10° NNW
Cosmos 841 Rocket 4.2 14:52:59 10° SW 14:58:07 54° WNW 15:03:15 10° NNE
Envisat 4.0 14:54:42 10° S 14:59:38 50° W 15:04:35 10° NNW
COSMO-SKYMED 1 3.4 14:56:32 12° NE 14:59:56 29° E 15:03:43 10° SSE
Cosmos 1743 Rocket 4.1 14:56:34 10° NNW 15:01:01 65° W 15:05:25 10° S
Nadezhda 1 Rocket 4.0 14:56:47 10° S 15:03:06 84° E 15:09:33 10° N
H-2A R/B 3.1 15:02:20 14° ESE 15:05:31 23° ENE 15:09:33 10° N
H-2A R/B 4.2 15:02:03 10° SSW 15:06:08 38° W 15:10:07 10° NNW
Cosmos 2292 4.2 15:04:47 10° S 15:07:50 86° E 15:11:26 10° N
Okean O Rocket 2.0 15:05:16 10° S 15:09:34 65° WSW 15:13:56 10° NNW
BREEZE-M DEB (TANK) 1.6 15:08:53 10° WSW 15:10:59 70° SSE 15:11:32 43° E
Cosmos 2154 Rocket 4.2 15:06:26 10° NNW 15:12:46 76° W 15:19:06 10° S
Sich 1 3.0 15:08:45 10° N 15:13:10 67° E 15:17:30 10° SSE
Cosmos 2297 4.0 15:09:57 10° NNW 15:15:21 43° NE 15:20:14 13° ESE
Cosmos 962 Rocket 4.4 15:11:03 10° N 15:17:24 75° E 15:23:38 10° SSE
Cosmos 1933 3.9 15:15:07 10° SSE 15:18:46 34° E 15:19:41 30° ENE
Cosmos 405 Rocket 4.1 15:15:37 10° NNW 15:19:17 42° W 15:23:01 10° SSW
Cosmos 2341 Rocket 3.9 15:13:48 10° N 15:20:05 71° E 15:26:22 10° SSE
USA 281 3.2 15:13:51 10° SE 15:20:16 60° ENE 15:26:44 10° NNW
Cosmos 1805 Rocket 3.7 15:16:53 10° NNW 15:21:22 78° W 15:25:48 10° S
Cosmos 1943 Rocket 2.8 15:19:56 10° NNW 15:24:54 32° NE 15:26:21 28° ENE
SL-16 R/B 2.9 15:21:38 10° SSE 15:26:36 32° ESE 15:27:59 29° ENE
Cosmos 1666 Rocket 3.5 15:23:03 10° N 15:27:24 60° ENE 15:31:46 10° SSE
SMAP 4.4 15:23:02 10° S 15:27:26 41° W 15:31:52 10° NNW
Helios 1A Rocket 3.1 15:27:04 14° SE 15:30:20 44° ENE 15:34:11 10° N
Cosmos 1151 Rocket 3.4 15:28:40 10° SSE 15:32:40 40° E 15:32:56 39° E
ARGOS 3.9 15:34:15 30° ENE 15:34:15 30° ENE 15:38:36 10° N
NOSS 0 Rocket 4.1 15:28:53 10° SW 15:35:08 75° WNW 15:40:40 14° NNE
Cosmos 1328 Rocket 4.1 15:31:14 10° SSE 15:34:40 36° ESE 15:34:40 36° ESE
Cosmos 2285 Rocket 4.1 15:29:22 10° NNW 15:35:43 56° ENE 15:41:57 10° SE
MOS 1 Rocket 4.1 15:34:55 31° ENE 15:36:24 37° E 15:41:24 10° SSE
Feng Yun 1-1 Rocket 4.4 15:30:41 10° SSE 15:36:31 82° WSW 15:42:14 10° NNW
CZ-2C R/B 3.0 15:34:41 10° SSE 15:39:45 57° ENE 15:44:35 10° N
Cosmos 2333 Rocket 3.8 15:35:35 10° WSW 15:40:37 31° NW 15:45:40 10° NNE
Cosmos 836 Rocket 4.4 15:35:30 10° SSW 15:40:47 88° ESE 15:44:43 19° NNE
Meteor 1-20 Rocket 4.2 15:38:16 10° N 15:44:09 76° ENE 15:50:00 10° SSE
Cosmos 1606 3.0 15:41:07 10° SSW 15:44:59 70° W 15:48:01 16° N
Cosmos 1867 3.7 15:40:17 10° SSW 15:45:31 51° ESE 15:46:51 41° ENE
COSMOS 2428 4.1 15:40:32 10° WSW 15:45:46 36° NW 15:51:02 10° NNE
Cosmos 389 Rocket 2.6 15:42:51 10° SSW 15:46:16 70° WNW 15:47:24 39° N
H-2A R/B 4.1 15:43:33 10° N 15:47:00 26° WNW 15:50:28 10° WSW
EO 1 Delta rocket 4.2 15:42:26 10° NNE 15:47:32 64° E 15:53:49 10° S
SKYMED 2 3.4 15:45:10 20° NNE 15:48:11 87° ESE 15:52:32 10° SSW
SL-8 Rocket 3.9 15:42:02 10° N 15:48:17 86° ENE 15:54:33 10° S
USA 215 3.2 15:44:55 29° NE 15:48:34 90° S 15:55:07 10° WSW
Cosmos 864 Rocket 4.4 15:42:28 10° N 15:48:48 70° E 15:55:04 10° SSE
CREW DRAGON DEMO-1 DEB 3.6 15:46:29 10° WNW 15:48:47 48° WNW 15:48:47 48° WNW
Cosmos 2181 Rocket 3.9 15:46:37 10° S 15:53:03 78° E 15:59:27 10° NNE
Cosmos 2278 Rocket 3.9 15:48:25 10° NW 15:53:27 33° WSW 15:58:28 10° SSW
Cosmos 1959 Rocket 4.4 15:51:31 10° N 15:57:56 84° E 16:04:18 10° S
Cosmos 1633 Rocket 3.1 15:54:44 10° NNW 15:59:08 79° W 16:03:30 10° S
Lacrosse 5 rocket 3.5 15:57:00 10° S 15:57:35 13° S 15:57:35 13° S
Meteor 1-25 Rocket 4.2 15:54:37 10° NNW 16:00:14 86° W 16:05:54 10° S
Cosmos 1821 Rocket 4.5 15:55:47 10° N 16:00:35 39° NE 16:00:35 39° NE
CZ-4 R/B 1.2 16:01:50 69° S 16:02:17 87° WSW 16:06:18 10° NNW
Cosmos 1241 Rocket 4.5 15:58:17 10° NW 16:04:55 70° NE 16:07:13 42° ESE
SAR-Lupe-4 4.2 16:06:38 51° NW 16:07:01 55° WNW 16:10:31 10° SSW
CZ-2D R/B 4.2 16:07:04 10° S 16:10:44 47° W 16:14:27 10° NNW
CSL-04 Debris 4.0 16:10:10 41° SE 16:12:06 72° ENE 16:17:36 10° NNW
SL-08 R/B 4.3 16:07:30 10° N 16:13:41 70° ENE 16:19:47 10° SSE
Cosmos 44 3.4 16:11:00 10° NW 16:16:18 88° NE 16:16:56 70° SE
Cosmos 2219 Rocket 4.3 16:12:04 10° W 16:16:21 22° NW 16:20:38 10° N
ERS-2 4.2 16:16:17 16° NNW 16:18:20 27° WNW 16:21:26 10° SW
USA 267 3.6 16:18:26 25° SSE 16:22:22 59° SW 16:28:49 10° WNW
Cosmos 2237 Rocket 3.2 16:18:14 10° SW 16:23:32 42° NW 16:26:47 22° N
YAOGAN 1 3.1 16:26:41 50° SW 16:27:24 57° W 16:31:41 10° NNW
CZ-4B R/B 4.2 16:26:55 13° NW 16:27:48 14° WNW 16:29:31 10° W
ISS -1.5 16:24:33 10° WSW 16:26:06 25° W 16:26:06 25° W
Okean-O 3.7 16:28:29 10° S 16:32:42 43° W 16:36:58 10° NNW
COSMO-SKYMED 1 4.2 16:33:45 19° NNW 16:36:06 32° WNW 16:39:58 10° SW
Cosmos 2369 Rocket 2.8 16:30:46 10° NNW 16:34:50 45° N 16:34:50 45° N
CSL-04 Rocket 3.6 16:37:06 77° SW 16:37:17 79° WSW 16:42:40 10° NNW
H-2A R/B 2.5 16:42:58 43° SSW 16:44:33 61° WSW 16:49:45 10° NNW
Cosmos 1943 Rocket 3.1 17:03:32 10° NW 17:07:55 45° WNW 17:07:55 45° WNW
SL-16 R/B 3.1 17:05:05 10° SW 17:09:55 45° WNW 17:09:55 45° WNW
ARGOS 4.5 17:15:45 36° NW 17:15:45 36° NW 17:19:16 10° NNW
USA 215 4.0 17:32:16 45° NW 17:32:16 45° NW 17:37:30 10° W
